Powrót do katalogu

SL-14 DEB

AktywnyPO
NORAD 39981·DEBRIS·🇷🇺 Russia

Wystrzelony Aug 18, 1987 z Plesetsk Cosmodrome

Loading…

Następne Przeloty (najbliższe 24 godziny)

TLE

ŚwieżeSource: Space-Track

Epoka: Sep 14, 2026, 11:22 UTC

1 39981U 87068DH  26257.47423704  .00000434  00000-0  31131-3 0  9995
2 39981  82.5554 158.3805 0008022 310.7175 171.1418 13.95020119624474

Śledź SL-14 DEB w czasie rzeczywistym z AllMySat

Download on the App Store